Wind_Speed
50 46 41 43 46 46 46 50 45 40 41 41 38 40 39 41 41 40 41 42 41 39 35 39 45 43 43 42 43 54 59 58 60 55 57 56 58 54 53 54 54 59 55 56 54 52 52 52 52
49 47 47 41 44 53 47 45 45 46 44 46 50 49 45 43 42 45 47 46 44 41 45 44 45 44 43 42 49 56 59 60 56 56 57 55 54 53 55 54 57 61 59 54 55 54 54 55 59
57 54 50 49 46 47 46 50 49 49 52 56 53 51 46 49 50 52 49 46 46 45 44 44 48 45 43 51 55 59 57 58 58 59 59 57 58 58 58 55 60 60 58 58 58 57 59 59 58
64 61 52 56 53 54 54 53 56 51 51 55 55 54 51 54 55 55 51 48 49 48 45 46 50 52 56 58 62 61 62 62 60 62 63 62 64 62 59 59 61 60 59 57 60 61 61 61 61
72 66 53 53 54 57 56 60 61 59 55 57 57 53 50 52 53 55 48 48 47 48 47 48 54 56 59 61 62 65 65 65 64 66 67 68 66 64 61 61 63 64 59 61 60 61 60 60 59
58 62 51 52 56 61 61 63 62 56 57 59 61 59 44 40 46 44 50 45 46 49 47 49 59 60 53 57 61 63 67 63 65 69 70 68 67 65 62 65 67 64 62 60 61 60 57 57 55
75 69 63 56 59 63 66 65 62 58 57 59 58 60 55 52 50 46 47 48 46 45 46 49 51 68 61 64 66 68 68 66 69 71 70 68 66 66 65 70 68 65 65 64 60 55 51 48 49
84 82 82 69 64 61 66 69 70 63 63 60 59 62 63 62 62 60 57 59 58 55 53 52 53 65 68 64 69 71 74 71 72 73 69 66 64 68 71 72 71 67 66 62 58 49 49 50 49
82 79 76 77 71 70 69 71 75 73 68 63 60 56 56 54 56 58 68 69 70 68 68 64 61 62 73 72 71 74 73 73 72 75 70 66 68 71 73 74 71 68 67 60 53 53 52 50 48
80 73 71 75 80 78 74 73 73 72 68 73 67 64 60 59 57 59 67 66 64 64 57 60 61 65 71 76 73 75 75 73 76 75 70 70 72 74 77 73 71 70 66 58 58 55 54 49 45
80 71 70 73 76 78 80 76 73 74 70 73 73 71 73 71 67 65 69 67 63 63 62 61 64 63 68 72 73 76 77 77 79 76 72 73 75 76 77 73 70 69 66 59 59 54 54 49 41
90 79 76 77 80 81 78 82 81 77 72 71 72 73 72 77 77 76 74 71 71 64 64 61 62 64 68 71 72 81 79 78 78 76 74 74 75 76 74 71 70 68 67 64 57 53 50 48 46
82 82 88 84 82 77 76 76 75 75 71 67 71 74 75 79 79 76 76 71 66 64 65 71 64 68 73 73 77 82 79 80 76 76 76 78 76 74 72 71 67 63 64 59 54 49 44 42 40
85 89 86 90 85 81 78 73 70 67 70 70 71 69 70 73 75 73 69 65 69 70 69 74 71 75 77 81 80 81 78 79 78 78 77 76 75 73 72 69 66 63 59 52 45 41 34 31 31
89 93 89 79 73 76 78 64 62 69 70 69 71 70 73 74 69 72 71 72 67 70 75 77 76 80 81 83 80 75 75 77 78 74 74 74 72 73 71 68 63 62 61 51 38 32 30 29 30
90 95 90 78 80 79 90 66 71 68 71 73 73 76 77 75 76 76 74 72 71 71 76 81 78 81 82 80 76 76 74 74 74 71 69 68 69 71 70 68 64 61 55 45 34 25 25 28 29
97 89 84 77 78 85 92 73 74 76 80 80 79 80 78 79 80 81 82 81 80 79 82 80 75 75 76 78 78 76 76 75 71 69 64 64 67 69 69 66 62 56 46 38 33 31 30 32 34
102 98 90 80 89 94 94 87 81 85 87 82 81 80 81 79 80 84 88 84 82 76 78 76 75 70 72 74 77 74 74 74 69 59 54 59 66 68 67 65 59 50 42 40 39 39 37 37 39
102 102 96 95 96 100 93 91 87 83 86 88 85 87 86 87 88 86 86 80 72 69 71 73 69 66 67 70 72 71 69 65 62 52 53 62 65 65 61 56 48 46 43 39 37 37 36 37 38
98 97 95 97 97 99 95 96 90 84 84 86 85 85 83 84 85 84 77 76 74 71 67 64 62 60 62 65 65 63 60 55 55 55 58 60 62 60 53 46 43 42 41 36 28 29 27 27 30
92 87 84 88 96 95 94 94 83 83 84 81 81 79 79 80 76 71 69 66 66 67 61 56 56 57 59 60 58 55 50 52 52 53 57 59 58 53 45 42 41 30 26 24 22 20 19 17 15
91 87 86 87 89 82 88 76 68 76 74 75 73 68 67 65 64 59 58 58 59 59 55 54 52 54 54 53 51 47 46 45 49 52 53 53 49 44 41 37 27 24 22 19 17 15 14 13 12
80 83 86 86 86 84 75 67 61 69 67 66 63 58 56 52 52 54 52 54 53 50 50 49 50 49 48 48 42 39 39 44 47 47 47 43 40 38 35 26 21 18 18 18 16 14 12 11 9
81 82 86 85 83 80 65 66 52 57 57 51 49 47 45 44 41 46 48 44 42 44 46 47 46 42 38 34 31 35 40 43 41 43 38 37 34 28 26 19 18 19 19 17 15 11 8 8 7
84 82 84 83 80 61 56 60 42 46 43 40 38 32 28 36 33 35 35 36 38 38 38 33 29 26 25 25 32 37 37 37 39 35 33 29 27 25 19 17 16 19 18 16 17 14 6 3 3
89 86 83 75 69 56 52 41 42 41 34 30 30 26 29 28 29 34 32 32 30 25 22 19 17 19 23 28 34 33 34 33 31 30 24 25 23 20 16 13 16 14 16 19 18 18 12 8 12
93 92 75 76 72 66 56 47 41 35 27 25 30 25 21 23 29 33 26 18 16 14 12 15 15 20 27 30 29 31 34 29 25 21 17 22 19 15 14 11 10 11 14 17 18 14 13 15 14
100 88 90 82 75 65 56 48 44 36 29 26 23 21 21 23 28 21 13 6 8 8 12 14 19 26 25 26 28 32 29 23 22 12 15 23 18 15 11 6 6 10 13 15 9 8 10 15 22
96 94 92 83 77 68 58 50 51 41 29 24 17 18 20 21 19 12 6 7 9 14 18 19 23 23 24 25 30 25 21 20 12 7 14 21 18 16 9 2 6 4 11 14 5 10 11 29 25
95 91 89 86 78 70 63 55 50 36 24 25 22 29 22 21 15 12 10 12 16 15 17 20 21 21 23 26 25 19 16 14 5 6 12 19 18 14 4 4 5 5 8 7 20 14 31 28 24
Wind_Direction
248 257 256 257 270 274 273 272 270 272 270 271 268 271 272 286 290 286 294 297 298 295 295 296 294 298 297 299 303 311 313 312 311 307 304 302 299 296 294 299 301 298 291 284 280 279 272 272 268
246 251 255 264 270 268 274 270 272 268 268 265 266 269 273 284 283 286 293 297 297 299 297 298 295 293 292 297 306 310 308 311 309 307 304 301 299 296 296 299 300 297 290 280 277 274 272 270 269
250 250 254 259 262 259 261 269 271 266 267 266 265 270 276 276 280 286 290 293 296 297 296 296 295 294 296 303 309 307 306 306 308 305 306 302 301 296 299 296 302 296 289 284 280 277 273 270 265
256 255 251 256 261 263 262 264 264 268 268 266 264 267 270 276 285 285 285 289 292 292 293 293 288 291 300 302 303 303 304 307 306 305 305 303 303 299 299 296 302 296 291 288 284 278 274 271 267
250 253 254 250 262 260 259 266 266 263 264 268 269 269 275 279 276 277 281 283 287 290 295 293 287 289 299 303 303 302 302 304 303 304 303 302 302 300 298 298 303 299 295 291 286 282 276 271 268
249 248 251 252 257 261 264 267 265 265 260 259 264 264 268 276 284 286 283 282 280 282 292 300 304 303 309 311 311 308 306 304 303 306 305 302 302 301 298 303 303 301 299 293 290 286 279 274 269
248 250 254 255 255 259 265 265 263 262 262 258 262 266 264 270 274 281 284 277 277 278 290 297 301 305 310 311 312 310 307 303 306 307 306 304 302 303 303 305 305 303 301 300 295 289 281 276 273
250 252 254 253 257 260 260 263 262 258 261 266 266 270 271 270 273 275 273 276 281 283 284 288 292 303 305 306 308 310 308 304 305 306 305 303 303 305 306 307 307 305 304 303 299 291 294 285 280
251 255 253 254 253 253 254 255 261 259 259 268 270 269 278 279 277 278 277 275 279 279 281 283 288 293 303 303 305 310 308 304 304 305 305 304 305 308 308 308 308 307 306 304 300 298 299 288 277
252 249 251 253 254 254 255 259 261 262 263 264 270 272 273 276 279 285 283 281 281 283 283 289 295 297 301 304 307 307 308 306 304 304 305 304 306 309 310 308 309 309 309 306 305 301 297 285 273
251 248 250 251 251 253 253 255 260 263 267 267 269 271 277 272 278 278 281 284 288 291 291 293 294 301 300 301 303 305 306 305 305 304 303 305 307 309 308 309 309 310 311 308 306 300 295 285 272
250 249 251 252 251 252 253 255 259 265 269 272 274 273 274 275 277 276 283 288 290 293 297 295 298 300 299 301 301 304 305 303 303 303 303 307 307 308 308 310 311 312 311 310 304 297 288 279 275
251 251 250 250 253 256 257 261 262 266 268 270 270 272 274 275 277 279 282 287 290 291 296 298 299 300 301 301 300 302 302 300 302 303 303 305 308 308 309 310 312 310 311 307 302 294 285 275 268
252 249 250 252 254 257 261 261 264 266 265 267 268 269 272 275 279 281 283 285 288 293 294 295 297 298 299 299 301 300 299 300 301 303 305 307 307 309 310 312 312 311 311 304 297 289 281 273 270
251 250 250 252 255 259 261 259 263 261 265 266 268 270 274 278 279 284 289 290 294 295 292 293 294 297 298 299 299 298 297 299 301 305 307 307 308 308 310 311 310 309 307 304 295 286 277 268 265
251 252 252 257 258 259 258 254 261 263 263 263 266 269 273 277 280 284 286 287 289 290 291 290 295 297 297 298 296 295 296 297 300 304 305 304 305 308 310 309 309 307 304 300 291 284 271 264 261
254 255 255 253 252 250 257 256 258 261 262 264 267 271 274 275 279 281 282 285 285 287 288 290 294 295 293 294 294 295 297 297 300 303 303 300 304 307 309 309 309 306 300 296 293 284 274 268 262
253 254 250 249 249 251 256 255 256 259 261 262 267 270 273 276 277 280 281 283 284 287 289 289 288 289 291 293 293 294 296 299 303 302 301 298 305 308 309 309 307 303 300 297 290 282 274 264 257
250 249 249 250 252 253 256 257 257 260 259 262 268 270 272 272 274 277 282 283 284 287 285 286 287 287 288 290 291 295 298 302 302 299 294 304 307 307 309 308 303 302 303 300 292 283 275 273 266
248 249 250 252 253 255 256 256 259 262 263 264 267 271 270 272 274 279 281 285 287 284 282 282 285 285 287 289 291 296 299 300 300 301 303 306 305 307 307 301 303 306 301 301 298 291 286 276 264
249 250 248 249 251 254 257 256 261 264 266 268 268 270 274 274 278 280 281 285 282 281 281 278 281 283 286 289 293 296 296 297 298 302 306 305 306 307 305 309 312 312 310 311 308 300 294 282 268
246 248 247 249 251 254 256 255 263 261 264 265 267 271 274 279 281 284 284 280 276 274 275 277 278 283 287 290 293 293 295 295 299 305 305 306 309 311 313 317 319 324 326 322 321 316 301 288 276
243 245 245 246 249 252 256 259 257 262 262 265 269 273 276 278 281 278 276 276 278 280 277 279 283 287 288 291 289 290 292 295 301 302 304 306 308 314 316 323 330 336 336 330 318 319 310 295 283
240 242 244 245 248 251 254 256 258 258 259 264 274 275 273 272 269 273 275 276 278 277 279 283 286 288 287 285 287 291 294 298 300 301 306 308 314 311 323 331 333 338 340 343 340 341 341 316 294
240 242 244 246 250 252 252 252 252 257 267 268 267 267 264 269 275 277 279 283 281 283 288 287 283 281 279 286 289 294 298 301 301 304 306 309 314 321 327 336 340 348 1 3 9 8 17 3 33
237 240 244 249 251 247 247 255 245 259 261 255 259 267 269 281 283 287 292 292 291 288 282 279 272 276 289 292 295 297 302 303 303 305 305 324 325 332 341 334 354 11 6 9 16 18 36 77 98
240 240 243 244 246 246 248 247 246 249 255 259 268 273 272 285 291 292 293 280 275 273 256 268 278 293 294 295 296 305 303 303 304 298 311 342 334 340 348 336 11 6 15 15 13 42 78 106 104
240 242 240 240 243 245 246 247 250 252 256 263 266 271 281 291 288 281 268 264 260 259 268 280 292 298 291 294 305 306 303 302 304 301 342 354 347 360 352 356 36 24 13 3 16 73 67 88 90
235 237 240 241 240 242 242 245 248 248 249 261 267 278 279 285 271 242 219 272 279 289 292 292 295 290 293 307 310 308 301 308 292 316 354 357 359 1 359 70 106 15 26 16 44 80 102 113 111
233 234 234 237 238 238 239 240 246 246 242 241 259 271 278 278 242 218 256 280 278 281 292 299 293 296 304 313 313 305 307 298 255 316 353 360 3 6 8 124 151 11 5 12 117 111 125 115 106
Height
10931 10935 10938 10938 10936 10931 10932 10932 10933 10935 10933 10932 10931 10933 10937 10943 10941 10943 10946 10943 10942 10941 10939 10936 10934 10932 10930 10927 10922 10919 10915 10912 10909 10905 10900 10896 10891 10888 10884 10882 10878 10874 10871 10868 10865 10865 10866 10866 10867
10921 10927 10930 10930 10928 10922 10926 10922 10930 10929 10926 10924 10921 10925 10930 10938 10935 10933 10937 10933 10933 10934 10931 10927 10924 10924 10922 10920 10917 10912 10907 10905 10901 10898 10892 10887 10882 10878 10875 10872 10868 10864 10860 10859 10857 10854 10853 10853 10853
10912 10918 10921 10923 10921 10917 10918 10916 10923 10922 10919 10915 10915 10914 10923 10926 10930 10926 10931 10928 10925 10925 10923 10919 10916 10916 10915 10912 10909 10905 10901 10896 10892 10889 10884 10879 10873 10868 10865 10861 10856 10851 10848 10846 10844 10842 10839 10838 10837
10904 10907 10912 10916 10913 10909 10912 10911 10909 10915 10911 10905 10905 10909 10916 10920 10920 10914 10922 10922 10919 10916 10914 10911 10909 10908 10905 10903 10901 10896 10892 10887 10882 10879 10875 10869 10863 10857 10854 10851 10844 10838 10834 10831 10829 10826 10823 10820 10819
10891 10898 10904 10907 10905 10899 10905 10905 10899 10904 10905 10894 10899 10901 10910 10911 10913 10911 10912 10914 10913 10907 10904 10901 10897 10901 10898 10894 10890 10885 10881 10876 10870 10867 10863 10857 10851 10846 10840 10837 10832 10824 10822 10817 10812 10808 10804 10802 10801
10879 10887 10896 10899 10898 10894 10895 10894 10889 10901 10895 10891 10886 10895 10906 10903 10900 10905 10901 10908 10908 10903 10897 10891 10879 10883 10887 10881 10878 10873 10869 10864 10859 10853 10847 10842 10838 10833 10828 10822 10816 10809 10805 10801 10796 10790 10786 10782 10781
10864 10879 10885 10890 10890 10888 10884 10879 10885 10888 10885 10882 10884 10883 10895 10898 10897 10897 10896 10896 10900 10898 10893 10890 10884 10862 10874 10871 10866 10862 10856 10852 10847 10840 10834 10828 10824 10818 10813 10807 10801 10794 10788 10782 10776 10772 10767 10764 10764
10849 10868 10877 10880 10880 10880 10871 10866 10872 10879 10877 10873 10878 10874 10882 10889 10888 10890 10891 10890 10886 10896 10891 10885 10882 10866 10860 10865 10857 10852 10844 10839 10833 10827 10820 10814 10811 10805 10797 10790 10783 10778 10772 10765 10757 10754 10751 10747 10746
10834 10863 10870 10866 10865 10866 10855 10856 10858 10863 10871 10870 10862 10874 10870 10872 10876 10877 10873 10879 10878 10882 10885 10877 10874 10870 10843 10851 10849 10841 10834 10827 10820 10813 10807 10802 10798 10792 10783 10775 10767 10762 10756 10750 10743 10738 10734 10732 10730
10829 10849 10856 10848 10849 10854 10847 10845 10850 10846 10865 10856 10862 10862 10864 10865 10869 10866 10858 10862 10863 10863 10874 10868 10866 10859 10840 10835 10833 10828 10822 10816 10808 10801 10794 10789 10785 10780 10771 10761 10754 10745 10739 10734 10726 10721 10719 10718 10718
10816 10841 10835 10836 10835 10835 10840 10837 10837 10841 10850 10849 10853 10854 10849 10855 10858 10861 10852 10850 10852 10850 10854 10856 10853 10849 10837 10830 10821 10816 10810 10803 10797 10790 10782 10777 10772 10767 10759 10750 10742 10733 10724 10719 10712 10707 10703 10703 10704
10799 10820 10822 10820 10818 10820 10828 10826 10833 10835 10842 10839 10839 10841 10844 10841 10847 10850 10846 10844 10841 10838 10830 10842 10841 10836 10828 10823 10814 10804 10799 10793 10786 10780 10772 10765 10761 10755 10746 10738 10729 10719 10711 10705 10700 10695 10693 10689 10688
10794 10801 10797 10804 10802 10812 10813 10819 10825 10828 10827 10827 10825 10826 10831 10834 10836 10837 10836 10837 10828 10829 10824 10815 10825 10817 10813 10813 10807 10794 10786 10779 10774 10767 10761 10754 10747 10741 10734 10725 10718 10710 10701 10693 10688 10682 10677 10677 10676
10776 10773 10785 10787 10799 10802 10799 10808 10813 10816 10809 10815 10813 10815 10820 10823 10824 10824 10824 10824 10820 10818 10814 10807 10810 10803 10800 10795 10797 10788 10779 10768 10763 10755 10748 10740 10733 10727 10720 10712 10703 10696 10690 10686 10678 10671 10668 10665 10664
10754 10754 10765 10785 10791 10792 10774 10801 10804 10795 10797 10803 10803 10807 10809 10813 10814 10811 10809 10809 10811 10808 10800 10795 10793 10789 10785 10782 10783 10779 10772 10762 10753 10749 10736 10727 10718 10713 10708 10702 10695 10687 10678 10671 10668 10662 10657 10656 10656
10734 10734 10760 10779 10777 10779 10739 10803 10784 10787 10786 10787 10793 10795 10799 10804 10799 10797 10797 10799 10799 10797 10790 10782 10781 10777 10769 10765 10766 10765 10762 10757 10749 10742 10733 10720 10710 10703 10697 10689 10683 10676 10666 10660 10655 10652 10649 10647 10647
10725 10738 10748 10761 10755 10742 10723 10784 10782 10772 10770 10778 10782 10784 10790 10788 10786 10785 10786 10786 10786 10783 10777 10775 10773 10769 10758 10749 10747 10748 10741 10740 10739 10733 10724 10711 10704 10695 10687 10677 10670 10664 10656 10649 10643 10640 10639 10638 10637
10710 10703 10726 10750 10730 10724 10728 10747 10765 10764 10759 10766 10770 10772 10773 10774 10775 10772 10769 10772 10774 10770 10762 10757 10758 10757 10748 10740 10733 10733 10729 10722 10723 10716 10708 10699 10693 10685 10675 10665 10657 10649 10643 10637 10631 10627 10626 10624 10624
10677 10696 10711 10721 10711 10702 10724 10729 10742 10752 10751 10751 10757 10758 10757 10762 10761 10760 10756 10757 10759 10759 10748 10744 10745 10742 10737 10731 10724 10720 10718 10711 10707 10707 10699 10691 10682 10673 10663 10655 10647 10638 10629 10623 10619 10614 10611 10611 10610
10659 10676 10694 10692 10690 10681 10705 10711 10723 10741 10740 10737 10743 10741 10747 10745 10747 10746 10744 10741 10743 10738 10737 10734 10730 10728 10724 10719 10716 10711 10707 10703 10697 10690 10684 10680 10673 10664 10656 10646 10637 10627 10619 10612 10607 10603 10600 10599 10598
10647 10662 10668 10673 10661 10675 10688 10698 10721 10725 10721 10727 10728 10730 10729 10735 10735 10732 10731 10730 10724 10719 10720 10720 10719 10716 10712 10709 10706 10702 10697 10694 10688 10682 10675 10668 10660 10653 10644 10635 10626 10618 10610 10605 10601 10597 10593 10592 10591
10634 10637 10645 10651 10650 10675 10668 10695 10714 10700 10709 10709 10710 10720 10720 10719 10718 10717 10715 10713 10708 10706 10708 10707 10706 10704 10702 10700 10696 10693 10690 10684 10679 10673 10667 10659 10650 10641 10634 10627 10619 10612 10607 10602 10597 10592 10589 10588 10587
10619 10616 10625 10631 10642 10652 10670 10683 10695 10686 10691 10695 10701 10708 10709 10709 10706 10704 10702 10696 10695 10696 10694 10694 10695 10694 10691 10690 10686 10684 10682 10675 10672 10666 10660 10653 10645 10636 10627 10621 10614 10610 10604 10599 10594 10590 10586 10584 10583
10590 10599 10606 10617 10631 10643 10663 10669 10685 10673 10678 10688 10693 10696 10698 10695 10697 10691 10689 10687 10686 10685 10683 10684 10684 10684 10681 10679 10677 10675 10672 10668 10666 10658 10653 10646 10638 10631 10624 10618 10612 10607 10602 10598 10592 10588 10584 10582 10580
10574 10580 10590 10605 10621 10654 10641 10663 10674 10655 10675 10681 10681 10685 10688 10683 10685 10681 10680 10679 10676 10676 10676 10676 10675 10674 10673 10672 10669 10668 10665 10660 10655 10651 10646 10640 10633 10626 10619 10615 10610 10606 10601 10597 10592 10588 10585 10583 10581
10557 10564 10577 10598 10615 10632 10628 10663 10653 10656 10667 10671 10670 10677 10677 10676 10674 10672 10671 10669 10668 10669 10670 10670 10669 10668 10667 10665 10662 10660 10657 10652 10647 10644 10640 10633 10626 10620 10617 10612 10609 10604 10601 10597 10594 10591 10587 10584 10582
10542 10548 10588 10585 10595 10608 10625 10638 10645 10649 10657 10662 10662 10665 10668 10668 10667 10665 10663 10663 10663 10664 10667 10666 10665 10663 10661 10659 10656 10652 10647 10644 10642 10639 10636 10629 10622 10618 10614 10611 10608 10605 10601 10598 10597 10595 10591 10588 10586
10518 10550 10548 10569 10582 10601 10616 10627 10633 10642 10651 10654 10657 10658 10661 10661 10661 10660 10659 10660 10662 10663 10664 10662 10659 10657 10655 10652 10650 10645 10640 10638 10636 10634 10630 10624 10619 10615 10612 10610 10608 10605 10603 10602 10600 10598 10596 10593 10589
10504 10520 10533 10556 10571 10591 10605 10618 10620 10633 10644 10648 10651 10652 10655 10655 10656 10657 10658 10659 10661 10661 10660 10657 10654 10652 10649 10646 10642 10638 10635 10632 10630 10630 10626 10621 10616 10613 10610 10609 10608 10606 10606 10605 10601 10601 10599 10598 10594
10483 10506 10518 10533 10562 10578 10593 10604 10613 10625 10638 10644 10648 10647 10648 10651 10652 10655 10657 10658 10658 10656 10654 10652 10650 10646 10644 10640 10636 10632 10630 10628 10627 10626 10623 10619 10615 10612 10610 10608 10608 10609 10608 10606 10605 10604 10605 10604 10603